KQ4KX Weather Reports


Display with metric or nautical units.
time (UTC)temp
F
wind
direction
speed
MPH
gust
MPH
rain 1hr
in
rain 24hr
in
rain mn
in
humidity
%
barometer
mb
20260505070002 68 87 4.0 8.0 0.00 0.00 0.00 89 1014.7
20260505065502 68 86 4.0 8.0 0.00 0.00 0.00 89 1014.8
20260505064933 68 85 3.0 8.0 0.00 0.00 0.00 89 1014.7
20260505064403 68 81 3.0 7.0 0.00 0.00 0.00 89 1015.0
20260505062332 69 90 5.0 9.0 0.00 0.00 0.00 88 1015.2
20260505061832 69 91 5.0 9.0 0.00 0.00 0.00 87 1015.2
20260505061302 69 90 5.0 9.0 0.00 0.00 0.00 87 1015.3
20260505060232 69 95 6.0 9.0 0.00 0.00 0.00 88 1015.3
20260505055702 69 95 6.0 9.0 0.00 0.00 0.00 88 1015.4
20260505055202 69 94 5.0 9.0 0.00 0.00 0.00 87 1015.6
20260505054633 69 93 4.0 8.0 0.00 0.00 0.00 87 1015.7
20260505054104 69 89 4.0 8.0 0.00 0.00 0.00 87 1015.8
20260505053104 69 93 5.0 9.0 0.00 0.00 0.00 87 1015.8
20260505052532 69 89 4.0 8.0 0.00 0.00 0.00 87 1016.0
20260505052032 69 84 3.0 7.0 0.00 0.00 0.00 86 1016.0
20260505051532 69 89 3.0 8.0 0.00 0.00 0.00 87 1016.2
20260505051002 69 91 4.0 8.0 0.00 0.00 0.00 86 1016.0
20260505050502 70 86 4.0 8.0 0.00 0.00 0.00 86 1016.2
20260505041732 70 88 5.0 10.0 0.00 0.00 0.00 84 1016.4
20260505041202 70 90 6.0 10.0 0.00 0.00 0.00 83 1016.5
20260505040702 70 91 6.0 10.0 0.00 0.00 0.00 84 1016.5
20260505040203 70 90 6.0 11.0 0.00 0.00 0.00 84 1016.3
20260505035702 70 88 6.0 11.0 0.00 0.00 0.00 84 1016.3
20260505034602 70 92 7.0 12.0 0.00 0.00 0.00 84 1016.5
20260505034104 70 92 8.0 13.0 0.00 0.00 0.00 84 1016.5
20260505033602 70 97 8.0 13.0 0.00 0.00 0.00 84 1016.4
20260505033104 70 99 8.0 11.0 0.00 0.00 0.00 83 1016.4
20260505032032 71 99 8.0 13.0 0.00 0.00 0.00 83 1016.4
20260505031502 71 99 9.0 14.0 0.00 0.00 0.00 82 1016.4
20260505031002 71 99 10.0 14.0 0.00 0.00 0.00 82 1016.6
20260505030502 71 102 9.0 14.0 0.00 0.00 0.00 82 1016.5
20260505024903 71 96 8.0 14.0 0.00 0.00 0.00 82 1016.3
20260505023302 71 100 9.0 15.0 0.00 0.00 0.00 81 1016.2
20260505022232 72 97 9.0 13.0 0.00 0.00 0.00 81 1016.2
20260505021732 72 98 9.0 13.0 0.00 0.00 0.00 80 1016.2
20260505021232 72 99 9.0 13.0 0.00 0.00 0.00 81 1016.0
20260505020702 72 100 9.0 14.0 0.00 0.00 0.00 80 1016.1
20260505020132 72 98 9.0 14.0 0.00 0.00 0.00 79 1016.0
20260505015602 72 96 9.0 16.0 0.00 0.00 0.00 79 1016.0
20260505014532 72 96 8.0 14.0 0.00 0.00 0.00 78 1015.9
20260505014002 72 98 9.0 14.0 0.00 0.00 0.00 78 1016.0
20260505013502 72 98 10.0 15.0 0.00 0.00 0.00 78 1016.0
20260505012933 72 96 10.0 15.0 0.00 0.00 0.00 77 1015.8
20260505010902 73 100 11.0 17.0 0.00 0.00 0.00 77 1015.6
20260505010332 73 101 11.0 16.0 0.00 0.00 0.00 77 1015.4
20260505005332 73 95 9.0 14.0 0.00 0.00 0.00 76 1015.5
20260505004803 73 94 9.0 13.0 0.00 0.00 0.00 76 1015.6
20260505004302 74 98 9.0 14.0 0.00 0.00 0.00 75 1015.5
20260505003302 74 104 12.0 18.0 0.00 0.00 0.00 74 1015.5
20260505002732 74 100 12.0 19.0 0.00 0.00 0.00 74 1015.4
20260505002232 74 100 12.0 19.0 0.00 0.00 0.00 74 1015.2
20260505001702 74 102 12.0 18.0 0.00 0.00 0.00 73 1015.2
20260505000632 75 96 10.0 18.0 0.00 0.00 0.00 73 1014.9
20260505000104 75 93 10.0 18.0 0.00 0.00 0.00 72 1014.9
20260504235532 75 96 11.0 18.0 0.00 0.00 0.00 72 1014.9
20260504235032 75 100 12.0 16.0 0.00 0.00 0.00 72 1014.9
20260504234532 76 100 11.0 17.0 0.00 0.00 0.00 71 1014.9
20260504234033 76 96 12.0 19.0 0.00 0.00 0.00 72 1014.6
20260504233503 76 94 13.0 19.0 0.00 0.00 0.00 72 1014.7
20260504233002 76 99 13.0 19.0 0.00 0.00 0.00 71 1014.6
20260504232433 76 95 13.0 18.0 0.00 0.00 0.00 71 1014.7
20260504231902 76 94 12.0 20.0 0.00 0.00 0.00 71 1014.7
20260504231402 76 94 11.0 20.0 0.00 0.00 0.00 70 1014.7
20260504225832 77 100 13.0 21.0 0.00 0.00 0.00 70 1014.6
20260504224732 78 103 14.0 21.0 0.00 0.00 0.00 69 1014.6
20260504224232 78 97 12.0 21.0 0.00 0.00 0.00 69 1014.6
20260504223702 78 87 10.0 20.0 0.00 0.00 0.00 68 1014.7
20260504223202 78 86 9.0 17.0 0.00 0.00 0.00 69 1014.5
20260504222703 78 91 10.0 17.0 0.00 0.00 0.00 68 1014.5
20260504221603 78 97 12.0 18.0 0.00 0.00 0.00 69 1014.6
20260504220603 78 90 9.0 18.0 0.00 0.00 0.00 67 1014.5
20260504215032 79 93 13.0 21.0 0.00 0.00 0.00 66 1014.5
20260504214503 79 99 14.0 21.0 0.00 0.00 0.00 66 1014.5
20260504214002 80 99 13.0 20.0 0.00 0.00 0.00 66 1014.5
20260504213502 80 95 12.0 20.0 0.00 0.00 0.00 66 1014.5
20260504211933 80 97 14.0 22.0 0.00 0.00 0.00 65 1014.4
20260504205433 81 98 13.0 19.0 0.00 0.00 0.00 62 1014.6
20260504204402 82 96 14.0 23.0 0.00 0.00 0.00 62 1014.6
20260504203902 82 97 12.0 20.0 0.00 0.00 0.00 63 1014.6
20260504203401 82 93 12.0 20.0 0.00 0.00 0.00 61 1014.7
20260504202902 82 97 13.0 20.0 0.00 0.00 0.00 59 1014.7
20260504202402 83 99 12.0 20.0 0.00 0.00 0.00 60 1014.7
20260504201831 82 95 12.0 20.0 0.00 0.00 0.00 61 1014.7
20260504200831 82 98 13.0 21.0 0.00 0.00 0.00 60 1014.7
20260504200332 83 99 13.0 21.0 0.00 0.00 0.00 60 1014.8
20260504194332 83 94 11.0 19.0 0.00 0.00 0.00 59 1015.2
20260504193831 82 97 11.0 16.0 0.00 0.00 0.00 61 1015.0
20260504193331 83 104 10.0 16.0 0.00 0.00 0.00 59 1015.2
20260504192831 82 104 9.0 16.0 0.00 0.00 0.00 60 1015.0
20260504192331 82 102 9.0 14.0 0.00 0.00 0.00 61 1015.2
20260504191831 82 97 10.0 20.0 0.00 0.00 0.00 61 1015.3
20260504190803 82 91 7.0 16.0 0.00 0.00 0.00 60 1015.4
20260504190301 82 91 6.0 14.0 0.00 0.00 0.00 59 1015.3
20260504185731 82 97 7.0 15.0 0.00 0.00 0.00 59 1015.5
20260504185231 81 91 5.0 15.0 0.00 0.00 0.00 61 1015.6
20260504184731 81 83 5.0 17.0 0.00 0.00 0.00 64 1015.6
20260504184231 81 84 9.0 17.0 0.00 0.00 0.00 60 1015.8
20260504183701 83 91 9.0 17.0 0.00 0.00 0.00 57 1015.9
20260504183201 84 99 8.0 15.0 0.00 0.00 0.00 57 1016.0
20260504182701 83 94 7.0 15.0 0.00 0.00 0.00 56 1016.0
20260504182201 82 94 6.0 13.0 0.00 0.00 0.00 56 1016.1
20260504181701 82 96 7.0 15.0 0.00 0.00 0.00 59 1016.1
20260504181201 81 83 6.0 15.0 0.00 0.00 0.00 60 1016.2
20260504180701 82 87 8.0 17.0 0.00 0.00 0.00 57 1016.1
20260504180201 82 92 9.0 17.0 0.00 0.00 0.00 57 1016.3
20260504175701 82 93 7.0 15.0 0.00 0.00 0.00 59 1016.4
20260504175201 82 94 6.0 14.0 0.00 0.00 0.00 54 1016.5
20260504174701 82 93 6.0 14.0 0.00 0.00 0.00 57 1016.4
20260504174201 82 93 8.0 16.0 0.00 0.00 0.00 55 1016.4
20260504173701 82 91 9.0 16.0 0.00 0.00 0.00 55 1016.4
20260504173201 81 80 6.0 15.0 0.00 0.00 0.00 55 1016.6
20260504172701 81 70 4.0 10.0 0.00 0.00 0.00 54 1016.6
20260504172201 81 74 5.0 16.0 0.00 0.00 0.00 53 1016.7
20260504171701 81 84 7.0 16.0 0.00 0.00 0.00 53 1016.7
20260504171201 82 96 10.0 18.0 0.00 0.00 0.00 53 1016.7
20260504170631 82 100 9.0 18.0 0.00 0.00 0.00 56 1016.7
20260504170131 82 97 7.0 14.0 0.00 0.00 0.00 54 1017.0
20260504150601 78 69 6.0 14.0 0.00 0.00 0.00 62 1017.7
20260504141030 75 72 5.0 16.0 0.00 0.00 0.00 68 1017.4
20260504140530 75 70 5.0 16.0 0.00 0.00 0.00 67 1017.5
20260504110429 65 40 2.0 3.0 0.00 0.00 0.00 88 1016.2
20260504100358 64 19 1.0 3.0 0.00 0.00 0.00 90 1015.9
20260504081858 66 25 2.0 2.0 0.00 0.01 0.00 87 1015.7
20260504080259 67 18 1.0 2.0 0.00 0.02 0.00 86 1015.8